Volver al catálogo

BLOCK DM-SL R/B

ActivoMEO
NORAD 67758·ROCKET BODY·🇷🇺 Russia

Lanzado Feb 12, 2026 desde Baikonur Cosmodrome

Loading…

Próximos Pases (próximas 24 horas)

TLE

ActualizadoSource: Space-Track

Época: Sep 14, 2026, 12:54 UTC

1 67758U 26028C   26257.53773643 -.00000025  00000-0  00000-0 0  9999
2 67758   0.1529  51.3981 0101134 262.6111  45.1701  1.03179975  1919

Sigue BLOCK DM-SL R/B en tiempo real con AllMySat

Download on the App Store